Khon Kaen, Thailand

5:03 PM +07 on September 20, 2017 (GMT +0700)
Khon Kaen

Weather History for VTUK - January, 2013

Change the Weather History Date:

Thursday, January 31, 2013

  Actual Average Record
Temperature  
Mean Temperature 78 °F -  
Max Temperature 84 °F 91 °F - ()
Min Temperature 71 °F 67 °F - ()
Cooling Degree Days 12    
Growing Degree Days 28 (Base 50)    
Moisture  
Dew Point 67 °F    
Average Humidity 72    
Maximum Humidity 88    
Minimum Humidity 44    
Precipitation  
Precipitation 0.00 in 0.02 in - ()
Sea Level Pressure  
Sea Level Pressure 30.01 in    
Wind  
Wind Speed 4 mph ()    
Max Wind Speed 15 mph    
Max Gust Speed -    
Visibility 6.1 miles    
Events      
T = Trace of Precipitation, MM = Missing Value Source: Averaged Metar Reports

Daily Weather History Graph

Daily Weather History Graph

Search for Another Location

Airport or City:

Trip Planner

Search our weather history database for the weather conditions in past years. The results will help you decide how hot, cold, wet, or windy it might be!

Date:

Astronomy

Jan. 31, 2013 Rise Set
Actual Time 6:39 AM +07 6:04 PM +07
Civil Twilight 6:17 AM +07 6:27 PM +07
Nautical Twilight 5:51 AM +07 6:53 PM +07
Astronomical Twilight 5:25 AM +07 7:19 PM +07
Moon 9:42 PM +07 (1/31) 9:07 AM +07 (1/31)
Length of Visible Light 12h 10m
Length of Day
11h 25m
Waning Gibbous, 84% of the Moon is Illuminated
Jan 31
Waning Gibbous
Feb 3
Last Quarter
Feb 10
New
Feb 18
First Quarter
Feb 26
Full

Hourly Weather History & Observations

Time (+07) Temp. Heat Index Dew Point Humidity Pressure Visibility Wind Dir Wind Speed Gust Speed Precip Events Conditions
1:00 AM 74 °F - 67 °F 72% 29.95 in 6 mi Calm Calm - -   Scattered Clouds
4:00 AM 73.4 °F - 68.0 °F 83% 29.95 in 6.2 mi Variable 1.2 mph - N/A   Mostly Cloudy
6:00 AM 71.6 °F - 66.2 °F 83% 29.98 in 6.2 mi Calm Calm - N/A   Mostly Cloudy
7:00 AM 71 °F - 65 °F 78% 30.00 in 5 mi Calm Calm - -   Mist
7:00 AM 71.6 °F - 66.2 °F 83% 30.01 in 5.6 mi Calm Calm - N/A   Overcast
8:00 AM 71.6 °F - 68.0 °F 88% 30.04 in 6.2 mi Calm Calm - N/A   Overcast
9:00 AM 75.2 °F - 68.0 °F 78% 30.06 in 6.2 mi Variable 2.3 mph - N/A   Overcast
10:00 AM 77.0 °F - 68.0 °F 74% 30.06 in 6.2 mi East 6.9 mph - N/A   Mostly Cloudy
11:00 AM 78.8 °F - 68.0 °F 69% 30.06 in 6.2 mi NE 6.9 mph - N/A   Mostly Cloudy
12:00 PM 80.6 °F 83.2 °F 68.0 °F 65% 30.04 in 6.2 mi NNE 8.1 mph - N/A   Mostly Cloudy
1:00 PM 83 °F - 65 °F 44% 30.00 in 6 mi ENE 5.8 mph - -   Scattered Clouds
1:00 PM 82.4 °F 85.4 °F 68.0 °F 62% 30.01 in 6.2 mi NE 6.9 mph - N/A   Mostly Cloudy
2:00 PM 82.4 °F 86.3 °F 69.8 °F 66% 29.98 in 6.2 mi NNE 8.1 mph - N/A   Mostly Cloudy
3:00 PM 80.6 °F 83.2 °F 68.0 °F 65% 29.98 in 6.2 mi North 12.7 mph - N/A   Mostly Cloudy
4:00 PM 80.6 °F 83.2 °F 68.0 °F 65% 29.98 in 6.2 mi North 11.5 mph - N/A   Mostly Cloudy
5:00 PM 77.0 °F - 68.0 °F 74% 30.01 in 6.2 mi North 13.8 mph - N/A   Mostly Cloudy
6:00 PM 75.2 °F - 68.0 °F 78% 30.01 in 6.2 mi NNE 15.0 mph - N/A   Mostly Cloudy
7:00 PM 74 °F - 65 °F 66% 30.01 in 6 mi North 11.5 mph - -   Overcast
7:00 PM 73.4 °F - 68.0 °F 83% 30.04 in 6.2 mi NNE 12.7 mph - N/A   Mostly Cloudy